Thomasville, GA

10:49 AM EDT on September 19, 2019 (GMT -0400)
Thomasville Municipal

Weather History for KTVI - August, 2019

Change the Weather History Date:

Saturday, August 24, 2019

  Actual Average (KMUL) Record (KMUL)
Temperature  
Mean Temperature 83 °F -  
Max Temperature 93 °F 91 °F 100 °F (1938)
Min Temperature 73 °F 69 °F 59 °F (1957)
Cooling Degree Days 18    
Growing Degree Days 33 (Base 50)    
Moisture  
Dew Point 73 °F    
Average Humidity 77    
Maximum Humidity 100    
Minimum Humidity 49    
Precipitation  
Precipitation 0.00 in - - ()
Sea Level Pressure  
Sea Level Pressure 30.00 in    
Wind  
Wind Speed 3 mph ()    
Max Wind Speed 13 mph    
Max Gust Speed 24 mph    
Visibility 9.8 miles    
Events Rain , Thunderstorm    
Averages and records for this station are not official NWS values.
T = Trace of Precipitation, MM = Missing Value Source: Averaged Metar Reports

Daily Weather History Graph

Daily Weather History Graph

Search for Another Location

Airport or City:

Astronomy

Aug. 24, 2019 Rise Set
Actual Time 7:06 AM EDT 8:08 PM EDT
Civil Twilight 6:42 AM EDT 8:33 PM EDT
Nautical Twilight 6:12 AM EDT 9:02 PM EDT
Astronomical Twilight 5:41 AM EDT 9:33 PM EDT
Moon 1:07 AM EDT (8/24) 3:12 PM EDT (8/24)
Length of Visible Light 13h 51m
Length of Day
13h 01m
Last Quarter, 39% of the Moon is Illuminated
Aug 24
Last Quarter
Aug 30
New
Sep 5
First Quarter
Sep 14
Full
Sep 21
Last Quarter

Hourly Weather History & Observations

Time (EDT) Temp. Heat Index Dew Point Humidity Pressure Visibility Wind Dir Wind Speed Gust Speed Precip Events Conditions
12:15 AM 78.8 °F - 73.4 °F 83% 30.01 in 10.0 mi West 3.5 mph - N/A   Clear
12:35 AM 78.8 °F - 73.4 °F 83% 30.02 in 10.0 mi WNW 3.5 mph - N/A   Clear
12:55 AM 78.8 °F - 73.4 °F 83% 30.01 in 10.0 mi WNW 4.6 mph - N/A   Clear
1:15 AM 78.8 °F - 73.4 °F 83% 30.01 in 10.0 mi WNW 3.5 mph - N/A   Clear
1:35 AM 78.8 °F - 73.4 °F 83% 30.01 in 10.0 mi WNW 3.5 mph - N/A   Scattered Clouds
1:55 AM 78.8 °F - 73.4 °F 83% 29.99 in 10.0 mi WNW 4.6 mph - N/A   Scattered Clouds
2:15 AM 77.0 °F - 73.4 °F 89% 29.99 in 10.0 mi NNW 3.5 mph - N/A   Clear
2:35 AM 77.0 °F - 73.4 °F 89% 29.99 in 10.0 mi NW 3.5 mph - N/A   Clear
2:55 AM 77.0 °F - 73.4 °F 89% 29.98 in 10.0 mi Calm Calm - N/A   Scattered Clouds
3:15 AM 77.0 °F - 73.4 °F 89% 29.98 in 10.0 mi NW 3.5 mph - N/A   Scattered Clouds
3:55 AM 77.0 °F - 73.4 °F 89% 29.98 in 10.0 mi Calm Calm - N/A   Clear
4:15 AM 75.2 °F - 73.4 °F 94% 29.98 in 10.0 mi Calm Calm - N/A   Clear
4:55 AM 73.4 °F - 73.4 °F 100% 29.97 in 10.0 mi Calm Calm - N/A   Clear
5:15 AM 73.4 °F - 73.4 °F 100% 29.97 in 10.0 mi Calm Calm - N/A   Clear
5:35 AM 73.4 °F - 73.4 °F 100% 29.97 in 10.0 mi Calm Calm - N/A   Clear
5:55 AM 73.4 °F - 73.4 °F 100% 29.98 in 10.0 mi Calm Calm - N/A   Clear
6:15 AM 73.4 °F - 73.4 °F 100% 29.98 in 10.0 mi Calm Calm - N/A   Clear
6:35 AM 73.4 °F - 71.6 °F 94% 29.99 in 10.0 mi Calm Calm - N/A   Clear
6:55 AM 73.4 °F - 71.6 °F 94% 30.00 in 10.0 mi Calm Calm - N/A   Clear
7:15 AM 73.4 °F - 71.6 °F 94% 30.00 in 10.0 mi Calm Calm - N/A   Clear
7:35 AM 73.4 °F - 73.4 °F 100% 30.01 in 10.0 mi Calm Calm - N/A   Clear
7:55 AM 73.4 °F - 73.4 °F 100% 30.03 in 10.0 mi Calm Calm - N/A   Clear
8:15 AM 77.0 °F - 73.4 °F 89% 30.03 in 10.0 mi NNW 3.5 mph - N/A   Clear
8:35 AM 77.0 °F - 73.4 °F 89% 30.04 in 10.0 mi North 3.5 mph - N/A   Clear
8:55 AM 78.8 °F - 73.4 °F 83% 30.04 in 10.0 mi North 3.5 mph - N/A   Clear
9:15 AM 80.6 °F 85.4 °F 73.4 °F 79% 30.04 in 10.0 mi Calm Calm - N/A   Clear
9:35 AM 80.6 °F 85.4 °F 73.4 °F 79% 30.05 in 10.0 mi Calm Calm - N/A   Clear
9:55 AM 84.2 °F 90.9 °F 73.4 °F 70% 30.05 in 10.0 mi Calm Calm - N/A   Clear
10:15 AM 84.2 °F 90.9 °F 73.4 °F 70% 30.05 in 10.0 mi East 3.5 mph - N/A   Clear
10:35 AM 86.0 °F 93.4 °F 73.4 °F 66% 30.05 in 10.0 mi ENE 4.6 mph - N/A   Clear
10:55 AM 87.8 °F 95.6 °F 73.4 °F 62% 30.04 in 10.0 mi ENE 3.5 mph - N/A   Clear
11:15 AM 87.8 °F 95.6 °F 73.4 °F 62% 30.04 in 10.0 mi ENE 4.6 mph - N/A   Clear
11:35 AM 87.8 °F 95.6 °F 73.4 °F 62% 30.04 in 10.0 mi ENE 3.5 mph - N/A   Clear
11:55 AM 89.6 °F 98.2 °F 73.4 °F 59% 30.04 in 10.0 mi East 3.5 mph - N/A   Scattered Clouds
12:15 PM 89.6 °F 98.2 °F 73.4 °F 59% 30.03 in 10.0 mi ENE 5.8 mph - N/A   Scattered Clouds
12:35 PM 89.6 °F 98.2 °F 73.4 °F 59% 30.02 in 7.0 mi Calm Calm - N/A   Clear
12:55 PM 89.6 °F 98.2 °F 73.4 °F 59% 30.01 in 10.0 mi ENE 4.6 mph - N/A   Scattered Clouds
1:15 PM 89.6 °F 98.2 °F 73.4 °F 59% 30.01 in 10.0 mi East 4.6 mph - N/A   Scattered Clouds
1:35 PM 89.6 °F 98.2 °F 73.4 °F 59% 30.01 in 10.0 mi East 5.8 mph - N/A   Mostly Cloudy
1:55 PM 91.4 °F 100.1 °F 73.4 °F 55% 30.00 in 10.0 mi East 6.9 mph - N/A   Scattered Clouds
2:15 PM 91.4 °F 98.4 °F 71.6 °F 52% 29.99 in 10.0 mi Calm Calm - N/A   Clear
2:35 PM 93.2 °F 102.4 °F 73.4 °F 52% 29.98 in 10.0 mi Calm Calm - N/A   Scattered Clouds
2:55 PM 91.4 °F 98.4 °F 71.6 °F 52% 29.97 in 10.0 mi Calm Calm - N/A   Scattered Clouds
3:15 PM 91.4 °F 98.4 °F 71.6 °F 52% 29.96 in 10.0 mi Calm Calm - N/A   Clear
3:35 PM 93.2 °F 100.5 °F 71.6 °F 49% 29.95 in 10.0 mi NNE 4.6 mph - N/A   Scattered Clouds
3:55 PM 91.4 °F 96.8 °F 69.8 °F 49% 29.95 in 10.0 mi Calm Calm - N/A Thunderstorm Clear
4:15 PM 89.6 °F 98.2 °F 73.4 °F 59% 29.94 in 10.0 mi WSW 4.6 mph - N/A   Scattered Clouds
4:35 PM 89.6 °F 98.2 °F 73.4 °F 59% 29.93 in 10.0 mi West 5.8 mph - N/A   Scattered Clouds
4:55 PM 91.4 °F 100.1 °F 73.4 °F 55% 29.93 in 10.0 mi West 4.6 mph - N/A   Clear
5:15 PM 91.4 °F 102.5 °F 75.2 °F 59% 29.93 in 10.0 mi WSW 8.1 mph - N/A   Clear
5:35 PM 91.4 °F 102.5 °F 75.2 °F 59% 29.93 in 10.0 mi West 5.8 mph - N/A   Clear
5:55 PM 91.4 °F 100.1 °F 73.4 °F 55% 29.92 in 10.0 mi West 6.9 mph - N/A   Clear
6:15 PM 91.4 °F 100.1 °F 73.4 °F 55% 29.93 in 10.0 mi West 4.6 mph - N/A   Scattered Clouds
6:35 PM 87.8 °F 93.8 °F 71.6 °F 58% 29.93 in 1.0 mi NNE 9.2 mph - N/A Thunderstorm Unknown
6:55 PM 86.0 °F 91.8 °F 71.6 °F 62% 29.94 in 10.0 mi NNE 12.7 mph - N/A Thunderstorm Thunderstorm
7:35 PM 78.8 °F - 71.6 °F 78% 29.96 in 10.0 mi ENE 12.7 mph 18.4 mph N/A Thunderstorm Mostly Cloudy
7:55 PM 77.0 °F - 69.8 °F 78% 29.97 in 7.0 mi East 11.5 mph 24.2 mph N/A Rain , Thunderstorm Rain
8:15 PM 73.4 °F - 71.6 °F 94% 29.98 in 10.0 mi East 12.7 mph 24.2 mph N/A Thunderstorm Drizzle
8:35 PM 73.4 °F - 71.6 °F 94% 29.98 in 10.0 mi ESE 3.5 mph - N/A Rain , Thunderstorm Light Thunderstorms and Rain
8:55 PM 73.4 °F - 71.6 °F 94% 29.98 in 10.0 mi South 5.8 mph - N/A Thunderstorm Clear
9:15 PM 73.4 °F - 71.6 °F 94% 29.98 in 10.0 mi SE 5.8 mph - N/A   Scattered Clouds
9:35 PM 73.4 °F - 71.6 °F 94% 30.01 in 10.0 mi ESE 4.6 mph - N/A   Clear
9:55 PM 73.4 °F - 71.6 °F 94% 30.02 in 10.0 mi North 4.6 mph - N/A   Scattered Clouds
10:15 PM 73.4 °F - 71.6 °F 94% 30.03 in 10.0 mi North 5.8 mph - N/A   Mostly Cloudy
10:35 PM 73.4 °F - 71.6 °F 94% 30.03 in 10.0 mi Calm Calm - N/A   Mostly Cloudy
10:55 PM 73.4 °F - 71.6 °F 94% 30.04 in 10.0 mi Calm Calm - N/A   Scattered Clouds
11:15 PM 73.4 °F - 71.6 °F 94% 30.05 in 10.0 mi Calm Calm - N/A   Clear
11:35 PM 73.4 °F - 71.6 °F 94% 30.05 in 10.0 mi Calm Calm - N/A   Clear
11:55 PM 75.2 °F - 71.6 °F 89% 30.04 in 10.0 mi Calm Calm - N/A   Clear